Location: High Meadows Obseravatory
(40.7417°N, 111.5713°W)
Time: 20:16:58
(UTC-06:00)

Envisat - Pass Details

Date: 09 August 2022
Orbit: 763 x 765 km, 98.2° (Epoch: 30 September)

Event Time Altitude Azimuth Distance (km) Brightness Sun altitude
Rises 05:32:07 0° 17° (NNE) 3,237 7.1 -10.7°
Reaches altitude 10° 05:34:30 10° 23° (NNE) 2,306 6.4 -10.4°
Maximum altitude 05:39:28 53° 100° (E) 931 3.8 -9.6°
Drops below altitude 10° 05:44:23 10° 177° (S) 2,289 5.2 -8.7°
Sets 05:46:44 0° 182° (S) 3,210 5.9 -8.4°
